Starlink 33832

operational
NORAD ID: 63637 Int'l Des: 2025-083 Owner: SPXS Country: US Constellation: starlink
LEOCIRCULAR

About Starlink 33832

Description loading...

Live Position

Loading 3D Globe...

Upcoming Passes

Altitude History

Altitude vs Time

uPlot chart will show altitude changes over time

Two-Line Element Set

1 63637U 25083D 25259.45528180 .00014984 00000-0 55254-3 0 9999
2 63637 42.9994 268.8805 0001242 266.4102 93.6608 15.27602106 23424
Epoch: Sep 16, 2025 • Age: 23 hours

Current Status

Altitude 482.3 km
Velocity 7.63 km/s
Sub-Earth Point 15.42°N, 73.84°W
Launch Date Apr 25, 2025
Age 0.3 years
Type internet

Technical Details

Classification Payload
Mass 575.00 kg
Dry Mass 530.00 kg
Total Mass 575.00 kg
Length 0.30 m
Diameter 4.10 m
Span 29.00 m
Shape Box + pan
Manufacturer SPXS
Bus Type Starlink V2MO
Phase Status In Orbit
Owner/State SPXS/US

Large Constellations

Loading constellations...